Temp
72 71 71 70 70 69 69 69 68 68 68 69 69 69 69 69 69 70 70 69 69 69 69 68 68 68 68 67 67 67 67 67 66 66 66 66 67 67 67 67 68 69 70 71 71 72 72 72 72 69 67 67 66 66 65 65 65 65 65 64 63 63 63 64 64 63 63 63 61
71 71 70 69 69 69 69 68 68 68 68 69 70 70 70 70 70 70 70 69 69 68 68 67 67 67 66 65 65 65 64 64 64 64 64 64 64 64 65 65 65 66 67 67 68 69 69 69 68 66 64 63 63 62 62 62 63 63 62 61 60 60 60 60 60 59 59 59 58
71 71 70 69 69 69 69 68 68 68 68 69 69 69 69 70 69 69 69 69 68 68 68 67 67 66 65 64 63 63 62 62 62 62 61 61 61 60 61 61 61 62 62 63 64 64 65 65 63 62 61 61 61 60 59 59 60 60 59 58 58 57 57 57 57 57 57 57 56
71 71 70 70 70 69 69 68 68 68 68 68 68 68 68 68 68 67 67 67 67 67 67 67 67 66 65 63 63 62 61 60 60 60 60 59 59 59 59 59 59 59 59 60 60 60 61 60 60 59 59 60 59 58 57 57 57 57 56 55 55 55 54 54 54 55 55 54 54
70 70 70 70 70 70 69 69 68 68 67 67 67 67 67 67 66 66 66 65 65 64 64 65 65 65 63 62 61 61 60 59 59 59 59 58 58 58 58 58 58 58 57 58 58 58 58 58 57 57 57 57 56 56 56 56 55 54 53 53 53 52 52 52 52 52 52 52 51
69 69 69 69 69 68 68 68 68 68 67 67 67 66 66 66 66 65 65 64 63 63 62 62 62 61 61 61 60 60 59 59 59 59 59 58 58 57 57 57 57 57 56 56 56 56 56 56 55 55 54 54 54 54 54 54 54 53 52 51 51 51 50 50 50 50 50 50 49
68 67 67 67 67 67 67 67 67 67 67 67 67 66 66 65 65 65 64 64 63 62 61 60 61 60 59 59 59 59 59 59 59 59 58 57 57 57 57 56 56 56 55 55 55 55 55 55 54 53 53 53 52 53 53 54 53 52 50 49 49 50 50 50 50 49 49 49 48
67 66 66 66 66 66 66 66 67 67 66 66 66 66 66 65 65 64 64 63 62 61 61 60 60 60 59 59 59 59 59 59 58 58 57 56 56 56 56 56 56 55 55 55 54 54 54 54 53 52 52 52 52 52 52 53 52 50 49 48 48 48 49 49 49 49 49 49 48
65 65 65 65 65 65 66 66 66 66 66 66 65 65 65 64 64 63 62 61 60 60 60 60 60 60 60 60 60 59 59 58 57 56 56 56 56 56 56 56 56 55 55 55 55 54 54 53 52 52 51 51 51 51 52 52 51 50 49 48 48 48 48 49 49 49 48 48 48
64 64 64 64 64 64 65 65 65 65 64 64 63 62 62 61 61 61 60 59 59 59 59 59 59 59 59 59 59 58 58 57 56 55 54 54 54 55 55 56 55 55 55 55 55 55 54 53 52 52 51 51 51 51 52 51 50 49 48 48 48 48 48 48 49 49 49 48 47
63 63 63 63 63 63 63 63 63 63 62 61 61 60 60 59 59 59 59 59 58 58 58 59 59 59 58 58 58 57 57 57 56 55 55 55 54 54 55 55 55 55 55 56 56 55 54 53 53 53 53 53 53 52 52 51 50 49 49 49 48 48 47 47 48 49 48 48 47
63 63 62 62 62 62 62 62 61 61 60 59 59 59 58 58 57 57 58 58 57 57 58 58 58 58 58 57 57 57 57 57 57 56 56 56 56 56 55 55 55 55 55 56 56 56 55 54 53 52 52 53 53 52 51 51 50 49 49 49 48 48 48 48 48 48 48 47 46
62 62 62 62 62 62 62 61 60 60 59 59 58 58 57 56 56 57 57 57 57 57 57 57 58 57 57 56 57 57 57 57 57 57 57 57 57 57 56 56 56 55 55 55 56 56 55 53 52 51 51 51 51 51 50 50 49 49 48 48 47 47 47 47 48 48 47 47 46
62 61 61 61 61 61 61 60 60 59 59 58 57 57 56 56 56 56 57 56 56 56 56 56 56 56 56 57 57 57 57 57 57 57 57 56 57 56 56 56 55 55 55 55 55 54 53 52 51 50 49 49 49 49 49 48 48 47 47 46 46 45 45 46 46 46 46 45 45
61 61 61 61 61 61 60 60 59 59 58 57 57 57 57 56 56 56 56 56 56 56 56 56 56 56 56 57 57 57 57 57 57 57 57 56 56 56 55 55 54 54 54 54 54 53 52 51 50 49 48 47 47 47 47 47 46 46 45 45 45 45 45 45 45 45 45 44 44
60 60 60 60 60 60 59 59 58 58 58 57 57 57 57 56 56 56 56 56 55 55 55 55 55 56 56 56 57 57 57 57 57 57 56 56 55 55 54 54 53 53 53 53 52 51 50 49 49 48 47 46 46 45 45 45 45 45 45 45 45 45 45 45 45 45 44 44 44
59 59 59 60 60 59 59 58 58 57 57 57 57 56 56 56 56 56 55 56 56 56 56 55 55 55 55 55 56 56 56 57 56 56 55 55 54 54 53 52 52 52 52 52 51 50 49 48 47 47 46 45 45 45 45 45 45 45 45 45 45 45 45 45 44 44 44 44 44
58 58 59 59 59 58 58 57 57 57 57 57 56 56 56 56 56 55 55 56 56 56 56 55 55 55 55 55 55 55 55 55 55 54 54 53 53 52 52 51 51 51 51 51 50 49 48 47 47 46 46 45 45 45 45 44 44 44 44 44 44 44 44 44 44 44 44 43 43
57 58 58 58 58 57 57 57 56 56 56 56 56 56 56 56 56 55 55 55 56 56 55 55 55 55 54 54 54 54 54 54 53 52 52 52 51 51 50 50 50 50 50 50 49 49 48 48 48 47 46 45 45 44 44 44 44 44 43 43 43 43 43 43 43 43 43 43 43
57 57 57 57 57 57 56 56 56 56 56 56 56 55 55 55 55 55 54 54 55 55 55 55 54 54 54 53 53 52 52 52 52 51 50 50 50 49 49 49 49 49 49 48 48 48 47 47 47 47 46 45 44 44 44 43 43 43 43 43 43 43 42 42 42 42 43 43 43
56 57 57 57 57 56 56 56 56 56 56 56 55 54 54 54 54 54 53 54 54 54 54 54 54 53 53 52 52 51 51 51 51 50 50 49 49 49 49 48 48 48 47 47 47 47 46 46 46 46 46 45 44 44 44 43 43 43 43 43 42 42 42 42 42 42 43 43 44
57 57 56 56 56 56 55 55 55 55 55 55 54 54 53 53 53 52 53 53 53 53 53 53 53 53 52 52 51 50 50 50 50 50 49 49 48 48 48 47 46 45 45 45 45 46 46 46 46 46 46 45 45 44 44 44 44 43 43 43 42 42 42 43 43 43 43 44 45
57 56 56 56 55 55 55 54 54 54 54 54 53 53 52 52 52 52 52 52 52 52 52 52 52 52 51 51 50 49 49 48 48 47 47 47 46 46 46 46 45 44 44 44 44 45 45 45 46 46 45 45 44 44 45 45 44 43 43 43 42 42 43 43 44 44 45 45 46
57 56 56 56 55 54 54 54 54 53 53 53 52 52 51 51 51 51 51 51 51 50 50 51 51 51 50 50 49 49 48 46 45 44 44 44 44 44 44 44 44 44 44 45 44 44 45 45 45 45 45 45 45 45 45 45 44 44 43 43 43 43 43 44 44 45 46 46 47
56 56 56 55 54 54 53 53 53 52 52 52 52 51 51 50 50 50 50 50 50 49 49 49 49 49 49 49 48 47 46 45 44 43 43 43 43 43 44 44 44 44 45 44 44 45 45 45 45 45 45 45 45 45 45 45 44 44 44 44 44 43 44 44 44 45 45 45 45
55 55 55 54 54 53 52 52 52 52 52 52 51 50 50 49 49 49 49 49 49 49 48 47 48 48 48 48 47 46 45 45 43 43 42 42 43 43 44 44 45 44 44 44 44 44 45 45 45 45 45 45 45 45 45 45 45 45 45 44 44 44 43 43 42 43 43 43 44
54 54 54 53 53 52 52 52 52 52 51 51 50 49 49 49 49 48 48 48 48 48 47 46 47 47 46 46 45 44 44 44 43 43 42 42 43 43 44 44 44 43 43 43 44 44 45 45 45 45 45 45 44 44 45 45 45 45 44 44 44 43 42 41 41 41 41 41 42
53 53 53 52 52 51 51 51 51 51 50 50 49 49 48 48 48 48 48 48 47 47 46 46 46 45 45 44 43 43 43 43 43 43 43 43 43 43 44 43 43 43 43 43 44 44 45 45 45 45 45 44 44 44 44 44 44 43 42 42 42 42 41 41 41 41 41 41 42
52 52 52 51 51 50 50 49 49 50 50 49 49 48 48 47 47 47 47 47 46 45 44 44 44 44 43 43 43 42 43 43 43 43 43 43 43 43 43 43 42 43 43 44 44 44 44 44 44 45 44 44 43 43 43 43 42 42 42 42 42 42 42 42 42 42 42 42 42
51 51 50 50 50 49 49 49 49 49 49 49 49 48 47 46 45 45 46 45 45 44 44 43 43 43 42 42 42 42 42 42 43 43 43 43 43 43 43 42 42 42 43 44 44 44 44 44 44 44 44 43 42 42 41 41 41 42 42 42 43 43 43 43 43 43 43 43 43
49 49 48 48 48 48 48 48 49 49 49 49 48 47 46 45 44 44 44 44 44 44 44 44 43 42 42 42 42 42 42 42 43 44 44 44 43 43 42 42 42 43 43 44 44 44 44 44 43 43 43 43 42 41 41 41 42 42 42 43 43 43 43 43 43 43 44 44 43
48 48 47 47 47 47 48 48 48 49 48 48 47 46 44 44 44 44 44 44 44 44 43 43 42 42 42 42 42 42 42 43 43 44 44 44 43 43 42 42 42 43 43 44 44 44 43 43 42 42 42 41 40 39 39 41 41 42 42 42 42 43 43 43 44 44 44 44 44
47 47 47 46 46 46 47 47 47 47 47 46 45 44 44 43 43 44 44 44 43 43 43 42 42 42 42 42 42 42 42 43 43 43 43 43 43 42 42 42 42 43 44 44 44 43 43 42 41 41 41 40 39 38 38 39 39 40 41 41 41 42 42 43 43 43 44 44 44
47 46 46 45 45 45 45 45 45 45 45 44 44 43 43 43 43 43 43 43 43 43 43 43 43 42 42 43 42 42 42 43 43 43 43 43 43 42 42 41 42 43 44 44 43 43 42 41 41 41 41 40 39 39 39 39 39 39 39 39 40 40 40 40 41 42 43 43 44
46 46 45 45 45 44 44 44 44 44 43 43 43 43 43 43 42 42 42 43 43 43 43 43 43 43 43 43 43 43 42 42 42 42 42 42 42 42 41 41 41 43 43 43 43 42 41 41 41 41 41 40 39 39 40 40 40 39 39 39 39 39 40 40 41 41 42 43 44
46 45 45 44 44 44 44 43 43 43 43 42 42 42 42 42 42 42 43 43 42 42 42 42 42 42 42 43 43 43 42 42 42 42 42 42 42 41 41 41 41 42 43 43 42 41 41 41 41 41 41 40 40 40 40 40 40 40 40 40 40 40 40 41 41 41 42 43 43
46 45 45 44 44 43 43 43 43 42 42 42 42 42 42 42 42 42 42 42 42 41 41 41 41 41 41 41 41 42 42 42 42 42 41 42 41 41 41 40 41 41 42 42 42 41 41 41 41 41 41 41 41 41 41 41 41 40 40 40 40 40 40 40 41 41 41 42 42
46 45 44 44 43 43 43 43 42 42 42 41 41 42 42 41 41 41 42 42 41 41 40 40 40 40 40 40 40 40 41 42 42 41 41 41 41 41 41 40 40 41 41 42 41 41 41 41 41 42 42 41 41 41 41 41 41 40 40 40 40 40 40 40 41 41 41 41 40
45 45 44 44 43 43 43 43 42 42 41 41 41 41 41 41 41 41 41 41 41 40 40 39 39 38 38 39 39 38 39 40 40 40 40 40 41 41 41 40 40 40 41 41 41 41 41 41 41 42 42 42 42 42 41 41 40 40 40 40 40 40 40 41 41 41 40 40 39
45 45 44 44 43 43 43 42 42 42 41 41 41 41 41 41 41 41 41 41 40 40 39 38 37 38 38 39 38 38 38 38 38 38 38 39 41 41 41 40 40 40 41 41 41 41 41 41 41 42 42 42 42 42 41 41 40 40 39 39 39 39 40 40 41 40 40 40 40
45 44 43 43 42 41 41 41 41 41 41 40 40 40 41 41 41 41 40 40 39 39 38 37 37 38 38 38 38 38 37 37 38 38 37 38 40 41 41 40 40 40 40 41 41 41 41 41 41 42 42 42 42 42 42 41 40 40 39 39 39 39 39 39 40 40 40 40 40
MSLP
1014.73 1014.85 1014.97 1015.09 1015.21 1015.33 1015.49 1015.61 1015.73 1015.77 1015.85 1015.93 1015.97 1016.05 1016.13 1016.21 1016.21 1016.25 1016.29 1016.37 1016.45 1016.49 1016.57 1016.65 1016.73 1016.77 1016.89 1016.93 1017.05 1017.09 1017.13 1017.21 1017.25 1017.33 1017.33 1017.37 1017.33 1017.33 1017.33 1017.33 1017.29 1017.25 1017.21 1017.09 1017.05 1017.01 1016.97 1016.93 1017.01 1017.17 1017.29 1017.33 1017.41 1017.49 1017.61 1017.77 1017.85 1017.93 1018.05 1018.13 1018.21 1018.25 1018.33 1018.33 1018.41 1018.49 1018.53 1018.65 1018.89
1014.77 1014.81 1014.93 1015.09 1015.21 1015.33 1015.49 1015.61 1015.73 1015.77 1015.85 1015.93 1015.93 1015.97 1016.05 1016.09 1016.13 1016.17 1016.25 1016.33 1016.41 1016.53 1016.65 1016.73 1016.81 1016.89 1016.97 1017.05 1017.17 1017.21 1017.29 1017.33 1017.37 1017.41 1017.41 1017.45 1017.49 1017.49 1017.49 1017.49 1017.45 1017.41 1017.33 1017.33 1017.25 1017.21 1017.21 1017.21 1017.29 1017.41 1017.53 1017.61 1017.65 1017.77 1017.85 1017.93 1018.01 1018.09 1018.21 1018.33 1018.33 1018.41 1018.45 1018.49 1018.65 1018.69 1018.77 1018.85 1019.09
1014.77 1014.85 1015.01 1015.13 1015.25 1015.33 1015.45 1015.57 1015.69 1015.77 1015.85 1015.93 1015.93 1015.97 1016.05 1016.05 1016.13 1016.21 1016.29 1016.41 1016.49 1016.61 1016.69 1016.77 1016.89 1016.97 1017.09 1017.21 1017.29 1017.33 1017.41 1017.45 1017.49 1017.49 1017.57 1017.61 1017.65 1017.69 1017.69 1017.69 1017.65 1017.61 1017.61 1017.61 1017.49 1017.45 1017.45 1017.49 1017.57 1017.61 1017.73 1017.81 1017.89 1017.97 1018.05 1018.17 1018.21 1018.33 1018.41 1018.49 1018.53 1018.61 1018.69 1018.77 1018.81 1018.89 1018.93 1018.97 1019.13
1014.77 1014.89 1014.97 1015.09 1015.21 1015.29 1015.37 1015.49 1015.61 1015.73 1015.81 1015.93 1015.97 1016.05 1016.09 1016.21 1016.25 1016.33 1016.45 1016.49 1016.61 1016.73 1016.81 1016.85 1016.89 1016.97 1017.13 1017.25 1017.33 1017.49 1017.53 1017.57 1017.61 1017.61 1017.65 1017.69 1017.73 1017.77 1017.81 1017.77 1017.77 1017.77 1017.77 1017.77 1017.73 1017.69 1017.69 1017.73 1017.77 1017.85 1017.93 1017.97 1018.05 1018.17 1018.25 1018.37 1018.45 1018.53 1018.61 1018.69 1018.77 1018.77 1018.85 1018.93 1019.01 1019.05 1019.13 1019.21 1019.33
1014.81 1014.93 1015.01 1015.09 1015.21 1015.29 1015.37 1015.49 1015.61 1015.73 1015.81 1015.93 1016.05 1016.13 1016.21 1016.33 1016.41 1016.49 1016.57 1016.65 1016.81 1016.93 1017.01 1017.05 1017.05 1017.13 1017.29 1017.33 1017.49 1017.53 1017.61 1017.65 1017.69 1017.73 1017.73 1017.77 1017.77 1017.85 1017.89 1017.89 1017.85 1017.89 1017.93 1017.89 1017.89 1017.89 1017.93 1017.93 1018.01 1018.05 1018.09 1018.21 1018.29 1018.37 1018.49 1018.53 1018.65 1018.73 1018.85 1018.93 1018.97 1019.01 1019.05 1019.13 1019.21 1019.29 1019.37 1019.49 1019.57
1014.93 1015.05 1015.09 1015.21 1015.25 1015.33 1015.49 1015.57 1015.65 1015.77 1015.89 1015.97 1016.05 1016.17 1016.29 1016.41 1016.49 1016.61 1016.69 1016.81 1016.93 1017.09 1017.21 1017.29 1017.33 1017.41 1017.49 1017.53 1017.57 1017.61 1017.65 1017.73 1017.73 1017.77 1017.77 1017.81 1017.85 1017.93 1017.93 1017.93 1017.97 1018.01 1018.05 1018.05 1018.05 1018.05 1018.05 1018.05 1018.17 1018.25 1018.33 1018.45 1018.49 1018.57 1018.65 1018.69 1018.77 1018.89 1018.97 1019.09 1019.21 1019.21 1019.25 1019.33 1019.37 1019.45 1019.53 1019.61 1019.73
1015.05 1015.13 1015.25 1015.33 1015.41 1015.49 1015.61 1015.69 1015.77 1015.85 1015.93 1016.05 1016.13 1016.21 1016.33 1016.49 1016.61 1016.69 1016.77 1016.93 1017.05 1017.21 1017.33 1017.45 1017.49 1017.53 1017.61 1017.61 1017.61 1017.69 1017.73 1017.73 1017.77 1017.77 1017.81 1017.89 1017.93 1017.97 1018.01 1018.05 1018.05 1018.09 1018.13 1018.21 1018.17 1018.17 1018.21 1018.21 1018.25 1018.37 1018.49 1018.57 1018.65 1018.69 1018.73 1018.81 1018.89 1018.97 1019.09 1019.25 1019.33 1019.41 1019.45 1019.49 1019.53 1019.57 1019.61 1019.69 1019.81
1015.17 1015.29 1015.37 1015.49 1015.53 1015.61 1015.73 1015.77 1015.85 1015.93 1016.01 1016.05 1016.17 1016.25 1016.37 1016.53 1016.65 1016.77 1016.93 1017.05 1017.21 1017.33 1017.45 1017.53 1017.57 1017.61 1017.65 1017.69 1017.69 1017.73 1017.77 1017.77 1017.81 1017.89 1017.97 1018.01 1018.05 1018.05 1018.05 1018.13 1018.17 1018.21 1018.25 1018.29 1018.33 1018.33 1018.33 1018.37 1018.41 1018.49 1018.61 1018.69 1018.77 1018.81 1018.85 1018.93 1019.01 1019.09 1019.21 1019.37 1019.53 1019.61 1019.65 1019.65 1019.65 1019.65 1019.65 1019.77 1019.89
1015.33 1015.45 1015.53 1015.61 1015.69 1015.77 1015.85 1015.89 1015.93 1016.01 1016.05 1016.17 1016.29 1016.41 1016.57 1016.65 1016.77 1016.93 1017.09 1017.25 1017.37 1017.49 1017.61 1017.61 1017.65 1017.69 1017.73 1017.73 1017.73 1017.77 1017.81 1017.85 1017.93 1018.05 1018.05 1018.05 1018.09 1018.13 1018.13 1018.21 1018.21 1018.29 1018.33 1018.37 1018.41 1018.41 1018.45 1018.49 1018.57 1018.65 1018.69 1018.77 1018.89 1018.93 1019.01 1019.05 1019.13 1019.21 1019.33 1019.49 1019.65 1019.77 1019.81 1019.77 1019.77 1019.77 1019.77 1019.81 1019.93
1015.45 1015.57 1015.65 1015.77 1015.85 1015.93 1015.97 1016.05 1016.09 1016.17 1016.25 1016.41 1016.61 1016.73 1016.85 1016.93 1017.05 1017.17 1017.33 1017.49 1017.61 1017.65 1017.73 1017.77 1017.77 1017.77 1017.77 1017.77 1017.85 1017.93 1017.97 1018.01 1018.09 1018.21 1018.21 1018.25 1018.25 1018.25 1018.21 1018.25 1018.33 1018.33 1018.37 1018.45 1018.45 1018.45 1018.49 1018.57 1018.65 1018.73 1018.81 1018.89 1018.97 1019.05 1019.13 1019.21 1019.25 1019.33 1019.45 1019.61 1019.69 1019.77 1019.85 1019.89 1019.93 1019.97 1020.01 1019.97 1020.01
1015.57 1015.69 1015.81 1015.89 1016.01 1016.05 1016.13 1016.21 1016.33 1016.45 1016.57 1016.69 1016.85 1016.97 1017.09 1017.21 1017.33 1017.45 1017.53 1017.65 1017.73 1017.77 1017.85 1017.89 1017.89 1017.93 1017.93 1017.97 1018.01 1018.05 1018.09 1018.13 1018.21 1018.29 1018.33 1018.33 1018.33 1018.33 1018.33 1018.37 1018.41 1018.45 1018.45 1018.45 1018.49 1018.49 1018.53 1018.61 1018.65 1018.77 1018.85 1018.93 1019.01 1019.09 1019.21 1019.33 1019.37 1019.41 1019.49 1019.61 1019.73 1019.77 1019.89 1019.97 1020.09 1020.21 1020.21 1020.21 1020.21
1015.69 1015.81 1015.93 1016.05 1016.13 1016.21 1016.29 1016.37 1016.49 1016.65 1016.77 1016.93 1017.05 1017.17 1017.33 1017.49 1017.57 1017.65 1017.73 1017.77 1017.81 1017.89 1017.93 1017.97 1018.01 1018.01 1018.05 1018.13 1018.17 1018.21 1018.21 1018.21 1018.25 1018.29 1018.33 1018.33 1018.33 1018.37 1018.41 1018.49 1018.53 1018.53 1018.53 1018.49 1018.49 1018.49 1018.53 1018.65 1018.77 1018.85 1018.93 1018.97 1019.09 1019.21 1019.33 1019.37 1019.45 1019.49 1019.57 1019.65 1019.77 1019.89 1020.01 1020.09 1020.21 1020.33 1020.37 1020.41 1020.41
1015.81 1015.93 1016.05 1016.13 1016.21 1016.33 1016.37 1016.49 1016.65 1016.77 1016.93 1017.05 1017.21 1017.33 1017.53 1017.73 1017.77 1017.81 1017.85 1017.89 1017.89 1017.97 1018.05 1018.09 1018.13 1018.17 1018.21 1018.25 1018.29 1018.29 1018.29 1018.29 1018.33 1018.33 1018.33 1018.33 1018.37 1018.41 1018.45 1018.49 1018.53 1018.61 1018.61 1018.57 1018.57 1018.57 1018.65 1018.77 1018.93 1019.01 1019.05 1019.17 1019.25 1019.37 1019.49 1019.49 1019.57 1019.61 1019.69 1019.77 1019.93 1020.01 1020.09 1020.21 1020.33 1020.37 1020.45 1020.53 1020.61
1015.93 1016.01 1016.09 1016.21 1016.33 1016.37 1016.45 1016.57 1016.73 1016.85 1017.01 1017.13 1017.33 1017.49 1017.65 1017.81 1017.89 1017.89 1017.93 1017.97 1018.01 1018.05 1018.13 1018.21 1018.25 1018.33 1018.33 1018.33 1018.33 1018.33 1018.33 1018.33 1018.33 1018.33 1018.41 1018.45 1018.45 1018.49 1018.53 1018.61 1018.65 1018.65 1018.69 1018.69 1018.77 1018.81 1018.89 1018.97 1019.09 1019.21 1019.33 1019.37 1019.49 1019.57 1019.61 1019.69 1019.77 1019.81 1019.93 1019.97 1020.09 1020.21 1020.29 1020.33 1020.41 1020.49 1020.57 1020.65 1020.77
1015.97 1016.09 1016.21 1016.29 1016.33 1016.45 1016.53 1016.65 1016.77 1016.93 1017.05 1017.21 1017.37 1017.53 1017.65 1017.77 1017.89 1017.93 1017.97 1018.05 1018.13 1018.21 1018.21 1018.25 1018.33 1018.41 1018.45 1018.41 1018.41 1018.41 1018.37 1018.37 1018.33 1018.37 1018.41 1018.49 1018.49 1018.57 1018.65 1018.69 1018.77 1018.77 1018.81 1018.89 1018.93 1019.05 1019.09 1019.21 1019.33 1019.45 1019.53 1019.61 1019.69 1019.77 1019.81 1019.93 1019.93 1020.05 1020.09 1020.17 1020.25 1020.33 1020.45 1020.49 1020.57 1020.65 1020.69 1020.77 1020.93
1016.05 1016.17 1016.25 1016.29 1016.37 1016.49 1016.61 1016.77 1016.89 1017.01 1017.13 1017.25 1017.41 1017.57 1017.65 1017.77 1017.93 1017.97 1018.05 1018.09 1018.21 1018.21 1018.29 1018.33 1018.41 1018.45 1018.45 1018.49 1018.49 1018.49 1018.45 1018.41 1018.45 1018.45 1018.49 1018.53 1018.61 1018.69 1018.77 1018.81 1018.89 1018.93 1019.01 1019.05 1019.13 1019.21 1019.33 1019.45 1019.57 1019.65 1019.73 1019.77 1019.89 1019.93 1020.01 1020.05 1020.13 1020.21 1020.25 1020.29 1020.33 1020.45 1020.53 1020.61 1020.69 1020.77 1020.81 1020.93 1021.05
1016.09 1016.21 1016.29 1016.33 1016.41 1016.53 1016.65 1016.81 1016.93 1017.05 1017.21 1017.29 1017.45 1017.61 1017.69 1017.81 1017.93 1018.05 1018.09 1018.13 1018.17 1018.21 1018.25 1018.33 1018.41 1018.49 1018.49 1018.53 1018.53 1018.53 1018.49 1018.49 1018.49 1018.57 1018.65 1018.69 1018.77 1018.81 1018.93 1018.97 1019.05 1019.09 1019.17 1019.21 1019.29 1019.41 1019.53 1019.65 1019.77 1019.85 1019.93 1019.93 1020.01 1020.05 1020.13 1020.21 1020.25 1020.33 1020.37 1020.45 1020.49 1020.61 1020.65 1020.77 1020.81 1020.89 1020.97 1021.05 1021.17
1016.17 1016.25 1016.33 1016.41 1016.49 1016.65 1016.77 1016.89 1017.05 1017.17 1017.25 1017.37 1017.49 1017.61 1017.73 1017.85 1017.93 1018.05 1018.09 1018.13 1018.17 1018.21 1018.25 1018.33 1018.41 1018.49 1018.53 1018.57 1018.57 1018.61 1018.65 1018.65 1018.65 1018.73 1018.77 1018.89 1018.93 1019.01 1019.09 1019.17 1019.21 1019.25 1019.33 1019.33 1019.45 1019.53 1019.65 1019.77 1019.89 1019.93 1020.01 1020.05 1020.17 1020.21 1020.25 1020.33 1020.37 1020.49 1020.53 1020.61 1020.65 1020.73 1020.81 1020.93 1020.97 1021.05 1021.09 1021.21 1021.25
1016.21 1016.33 1016.41 1016.49 1016.61 1016.73 1016.85 1016.97 1017.13 1017.25 1017.37 1017.49 1017.61 1017.69 1017.77 1017.89 1017.93 1018.05 1018.13 1018.17 1018.21 1018.25 1018.29 1018.33 1018.45 1018.53 1018.61 1018.65 1018.65 1018.73 1018.77 1018.77 1018.85 1018.93 1019.01 1019.09 1019.13 1019.21 1019.29 1019.33 1019.41 1019.45 1019.49 1019.49 1019.57 1019.61 1019.73 1019.81 1019.93 1020.01 1020.09 1020.17 1020.25 1020.33 1020.37 1020.45 1020.53 1020.65 1020.69 1020.77 1020.85 1020.93 1020.97 1021.05 1021.13 1021.21 1021.29 1021.33 1021.37
1016.21 1016.33 1016.49 1016.57 1016.69 1016.81 1016.97 1017.09 1017.21 1017.33 1017.45 1017.57 1017.65 1017.77 1017.85 1017.93 1018.05 1018.09 1018.17 1018.21 1018.29 1018.33 1018.33 1018.41 1018.49 1018.61 1018.65 1018.73 1018.77 1018.89 1018.93 1018.97 1019.05 1019.09 1019.21 1019.29 1019.33 1019.41 1019.49 1019.53 1019.61 1019.61 1019.61 1019.69 1019.77 1019.77 1019.85 1019.93 1019.97 1020.05 1020.21 1020.29 1020.33 1020.45 1020.49 1020.57 1020.65 1020.77 1020.85 1020.93 1021.01 1021.05 1021.17 1021.21 1021.33 1021.37 1021.45 1021.49 1021.49
1016.25 1016.41 1016.53 1016.69 1016.77 1016.93 1017.05 1017.21 1017.33 1017.45 1017.53 1017.61 1017.77 1017.89 1017.97 1018.05 1018.13 1018.21 1018.29 1018.33 1018.37 1018.41 1018.45 1018.49 1018.57 1018.65 1018.73 1018.81 1018.93 1018.97 1019.05 1019.13 1019.21 1019.25 1019.33 1019.41 1019.49 1019.57 1019.61 1019.65 1019.73 1019.77 1019.77 1019.85 1019.93 1019.97 1020.01 1020.05 1020.09 1020.17 1020.25 1020.33 1020.41 1020.49 1020.57 1020.65 1020.77 1020.85 1020.93 1020.97 1021.13 1021.21 1021.29 1021.37 1021.45 1021.49 1021.53 1021.61 1021.61
1016.33 1016.49 1016.65 1016.77 1016.93 1017.05 1017.21 1017.33 1017.49 1017.57 1017.65 1017.77 1017.89 1018.01 1018.09 1018.21 1018.29 1018.37 1018.45 1018.49 1018.53 1018.53 1018.57 1018.65 1018.69 1018.77 1018.81 1018.93 1019.01 1019.09 1019.21 1019.25 1019.33 1019.41 1019.49 1019.53 1019.61 1019.69 1019.77 1019.85 1019.93 1020.01 1020.05 1020.05 1020.05 1020.09 1020.13 1020.17 1020.21 1020.25 1020.33 1020.41 1020.49 1020.57 1020.65 1020.73 1020.81 1020.93 1021.01 1021.09 1021.21 1021.33 1021.37 1021.41 1021.49 1021.53 1021.61 1021.61 1021.61
1016.37 1016.53 1016.73 1016.89 1017.05 1017.17 1017.33 1017.45 1017.57 1017.65 1017.77 1017.89 1018.01 1018.09 1018.21 1018.33 1018.45 1018.53 1018.61 1018.65 1018.65 1018.69 1018.77 1018.77 1018.81 1018.89 1018.97 1019.05 1019.17 1019.21 1019.33 1019.41 1019.49 1019.61 1019.65 1019.77 1019.81 1019.89 1019.97 1020.05 1020.17 1020.21 1020.21 1020.21 1020.21 1020.21 1020.25 1020.25 1020.29 1020.33 1020.45 1020.49 1020.57 1020.65 1020.73 1020.77 1020.89 1020.97 1021.05 1021.21 1021.29 1021.33 1021.45 1021.49 1021.53 1021.61 1021.61 1021.61 1021.65
1016.41 1016.57 1016.77 1016.93 1017.13 1017.25 1017.37 1017.49 1017.61 1017.77 1017.85 1017.97 1018.09 1018.21 1018.33 1018.45 1018.57 1018.65 1018.73 1018.77 1018.77 1018.85 1018.89 1018.93 1018.97 1019.05 1019.17 1019.25 1019.33 1019.37 1019.49 1019.57 1019.69 1019.81 1019.93 1019.97 1020.05 1020.09 1020.13 1020.21 1020.25 1020.29 1020.29 1020.33 1020.37 1020.33 1020.33 1020.33 1020.37 1020.45 1020.53 1020.61 1020.65 1020.73 1020.77 1020.89 1020.93 1021.05 1021.09 1021.21 1021.29 1021.37 1021.45 1021.49 1021.61 1021.61 1021.61 1021.61 1021.73
1016.49 1016.61 1016.77 1016.93 1017.13 1017.29 1017.45 1017.57 1017.69 1017.81 1017.93 1018.05 1018.21 1018.33 1018.41 1018.53 1018.65 1018.73 1018.77 1018.81 1018.89 1018.93 1019.01 1019.05 1019.17 1019.21 1019.29 1019.33 1019.45 1019.53 1019.61 1019.77 1019.89 1019.97 1020.05 1020.09 1020.17 1020.21 1020.21 1020.25 1020.25 1020.33 1020.37 1020.41 1020.45 1020.45 1020.41 1020.41 1020.49 1020.53 1020.61 1020.65 1020.73 1020.77 1020.85 1020.97 1021.05 1021.09 1021.17 1021.21 1021.33 1021.37 1021.49 1021.57 1021.61 1021.69 1021.73 1021.77 1021.89
1016.53 1016.65 1016.81 1017.01 1017.17 1017.33 1017.49 1017.61 1017.73 1017.85 1017.97 1018.05 1018.25 1018.37 1018.49 1018.65 1018.77 1018.81 1018.85 1018.89 1018.93 1019.05 1019.09 1019.21 1019.29 1019.33 1019.41 1019.49 1019.57 1019.65 1019.73 1019.85 1019.97 1020.05 1020.09 1020.17 1020.17 1020.21 1020.21 1020.25 1020.33 1020.41 1020.49 1020.49 1020.49 1020.49 1020.49 1020.49 1020.57 1020.61 1020.65 1020.69 1020.77 1020.85 1020.93 1021.05 1021.09 1021.17 1021.21 1021.29 1021.33 1021.49 1021.57 1021.69 1021.77 1021.93 1022.01 1022.05 1022.13
1016.61 1016.73 1016.89 1017.05 1017.25 1017.41 1017.53 1017.65 1017.77 1017.89 1018.01 1018.13 1018.33 1018.49 1018.65 1018.77 1018.85 1018.93 1018.93 1018.93 1019.05 1019.13 1019.21 1019.29 1019.37 1019.45 1019.49 1019.57 1019.65 1019.77 1019.81 1019.93 1020.05 1020.09 1020.13 1020.21 1020.21 1020.21 1020.21 1020.33 1020.37 1020.49 1020.57 1020.57 1020.57 1020.57 1020.57 1020.57 1020.65 1020.65 1020.73 1020.77 1020.89 1020.93 1020.97 1021.05 1021.13 1021.21 1021.33 1021.41 1021.49 1021.61 1021.73 1021.85 1022.01 1022.09 1022.21 1022.25 1022.33
1016.65 1016.77 1016.93 1017.13 1017.29 1017.45 1017.57 1017.73 1017.89 1018.01 1018.09 1018.21 1018.37 1018.53 1018.69 1018.85 1018.93 1018.93 1018.97 1019.05 1019.09 1019.21 1019.29 1019.33 1019.45 1019.49 1019.61 1019.69 1019.77 1019.85 1019.93 1020.01 1020.05 1020.09 1020.13 1020.21 1020.21 1020.21 1020.25 1020.33 1020.41 1020.49 1020.57 1020.65 1020.65 1020.65 1020.65 1020.65 1020.73 1020.77 1020.81 1020.89 1020.97 1021.01 1021.05 1021.13 1021.25 1021.37 1021.49 1021.57 1021.65 1021.77 1021.89 1022.01 1022.13 1022.21 1022.29 1022.33 1022.33
1016.65 1016.85 1017.01 1017.21 1017.33 1017.49 1017.65 1017.85 1017.93 1018.05 1018.17 1018.29 1018.45 1018.61 1018.73 1018.89 1018.93 1018.97 1019.01 1019.05 1019.13 1019.25 1019.37 1019.49 1019.53 1019.61 1019.69 1019.77 1019.85 1019.93 1019.97 1020.05 1020.05 1020.13 1020.17 1020.21 1020.21 1020.25 1020.33 1020.41 1020.49 1020.53 1020.57 1020.65 1020.65 1020.69 1020.73 1020.77 1020.81 1020.89 1020.93 1021.05 1021.09 1021.17 1021.25 1021.37 1021.49 1021.57 1021.61 1021.73 1021.77 1021.89 1021.97 1022.05 1022.17 1022.21 1022.29 1022.33 1022.37
1016.77 1016.93 1017.13 1017.29 1017.41 1017.57 1017.77 1017.93 1018.01 1018.09 1018.21 1018.33 1018.49 1018.65 1018.77 1018.93 1019.01 1019.05 1019.05 1019.13 1019.21 1019.29 1019.41 1019.53 1019.61 1019.65 1019.73 1019.81 1019.89 1019.93 1020.01 1020.05 1020.05 1020.13 1020.17 1020.21 1020.21 1020.29 1020.33 1020.45 1020.49 1020.53 1020.61 1020.65 1020.65 1020.73 1020.77 1020.85 1020.93 1020.97 1021.05 1021.17 1021.25 1021.33 1021.45 1021.53 1021.61 1021.65 1021.69 1021.77 1021.81 1021.93 1021.97 1022.05 1022.09 1022.21 1022.25 1022.33 1022.37
1016.93 1017.05 1017.21 1017.37 1017.49 1017.61 1017.77 1017.93 1018.05 1018.13 1018.25 1018.33 1018.49 1018.65 1018.81 1018.93 1019.01 1019.05 1019.09 1019.21 1019.25 1019.33 1019.49 1019.57 1019.61 1019.69 1019.77 1019.85 1019.89 1019.93 1020.01 1020.05 1020.05 1020.09 1020.13 1020.17 1020.21 1020.29 1020.37 1020.45 1020.49 1020.53 1020.61 1020.65 1020.73 1020.77 1020.85 1020.93 1021.01 1021.09 1021.21 1021.29 1021.37 1021.49 1021.57 1021.61 1021.65 1021.69 1021.73 1021.77 1021.85 1021.93 1021.93 1022.05 1022.09 1022.17 1022.21 1022.29 1022.37
1016.93 1017.09 1017.25 1017.41 1017.53 1017.69 1017.81 1017.97 1018.05 1018.17 1018.25 1018.37 1018.53 1018.69 1018.85 1018.97 1019.05 1019.09 1019.21 1019.25 1019.29 1019.37 1019.49 1019.57 1019.65 1019.73 1019.77 1019.85 1019.89 1019.93 1019.97 1020.01 1020.01 1020.05 1020.05 1020.17 1020.21 1020.33 1020.41 1020.49 1020.49 1020.57 1020.65 1020.73 1020.77 1020.85 1020.93 1021.05 1021.17 1021.25 1021.33 1021.45 1021.53 1021.61 1021.69 1021.69 1021.77 1021.77 1021.85 1021.93 1021.97 1022.01 1022.05 1022.09 1022.09 1022.17 1022.21 1022.29 1022.33
1017.01 1017.13 1017.29 1017.45 1017.61 1017.73 1017.85 1017.97 1018.09 1018.21 1018.33 1018.45 1018.61 1018.73 1018.89 1019.01 1019.05 1019.13 1019.21 1019.29 1019.33 1019.37 1019.49 1019.57 1019.61 1019.69 1019.77 1019.81 1019.85 1019.93 1019.93 1020.01 1020.05 1020.09 1020.13 1020.21 1020.25 1020.33 1020.45 1020.49 1020.53 1020.61 1020.69 1020.77 1020.89 1020.97 1021.05 1021.21 1021.33 1021.41 1021.49 1021.61 1021.73 1021.81 1021.89 1021.89 1021.93 1021.93 1022.01 1022.09 1022.09 1022.13 1022.13 1022.17 1022.17 1022.21 1022.29 1022.33 1022.37
1017.01 1017.13 1017.29 1017.45 1017.61 1017.77 1017.93 1018.05 1018.21 1018.33 1018.45 1018.57 1018.69 1018.77 1018.93 1019.05 1019.09 1019.17 1019.21 1019.33 1019.37 1019.45 1019.53 1019.61 1019.61 1019.69 1019.77 1019.81 1019.85 1019.93 1019.93 1020.05 1020.09 1020.17 1020.21 1020.25 1020.29 1020.37 1020.49 1020.53 1020.65 1020.69 1020.77 1020.85 1020.97 1021.09 1021.21 1021.33 1021.45 1021.53 1021.61 1021.73 1021.85 1021.93 1021.93 1022.01 1022.05 1022.09 1022.21 1022.29 1022.33 1022.37 1022.41 1022.45 1022.45 1022.45 1022.49 1022.49 1022.49
1016.97 1017.09 1017.25 1017.45 1017.61 1017.77 1017.93 1018.09 1018.21 1018.33 1018.49 1018.61 1018.73 1018.81 1018.93 1019.05 1019.09 1019.17 1019.25 1019.33 1019.41 1019.49 1019.57 1019.61 1019.69 1019.73 1019.77 1019.85 1019.89 1019.93 1020.01 1020.09 1020.17 1020.21 1020.29 1020.33 1020.37 1020.45 1020.49 1020.61 1020.69 1020.77 1020.85 1020.97 1021.09 1021.21 1021.33 1021.41 1021.49 1021.61 1021.69 1021.77 1021.89 1021.93 1021.97 1022.05 1022.09 1022.21 1022.29 1022.37 1022.45 1022.49 1022.57 1022.57 1022.61 1022.65 1022.65 1022.65 1022.65
1016.93 1017.09 1017.25 1017.45 1017.61 1017.77 1017.93 1018.09 1018.21 1018.33 1018.49 1018.65 1018.73 1018.85 1018.97 1019.05 1019.13 1019.21 1019.33 1019.37 1019.45 1019.49 1019.61 1019.65 1019.73 1019.77 1019.81 1019.89 1019.93 1020.01 1020.09 1020.13 1020.21 1020.33 1020.37 1020.41 1020.49 1020.53 1020.61 1020.69 1020.77 1020.89 1020.97 1021.09 1021.21 1021.33 1021.45 1021.53 1021.61 1021.61 1021.73 1021.77 1021.85 1021.93 1021.97 1022.05 1022.17 1022.25 1022.33 1022.41 1022.49 1022.57 1022.65 1022.69 1022.73 1022.77 1022.77 1022.77 1022.77
1016.89 1017.05 1017.21 1017.41 1017.61 1017.77 1017.93 1018.05 1018.21 1018.33 1018.49 1018.65 1018.77 1018.89 1018.97 1019.09 1019.21 1019.29 1019.37 1019.45 1019.49 1019.57 1019.65 1019.73 1019.77 1019.81 1019.89 1019.93 1020.05 1020.09 1020.17 1020.21 1020.33 1020.41 1020.49 1020.49 1020.53 1020.61 1020.65 1020.77 1020.89 1020.97 1021.05 1021.21 1021.33 1021.45 1021.53 1021.61 1021.65 1021.65 1021.69 1021.77 1021.85 1021.93 1021.97 1022.05 1022.17 1022.21 1022.33 1022.41 1022.53 1022.65 1022.73 1022.77 1022.85 1022.93 1022.93 1022.97 1023.01
1016.89 1017.05 1017.21 1017.37 1017.57 1017.77 1017.89 1018.05 1018.21 1018.33 1018.49 1018.65 1018.77 1018.93 1019.05 1019.13 1019.21 1019.33 1019.41 1019.49 1019.57 1019.61 1019.69 1019.77 1019.85 1019.93 1020.05 1020.17 1020.25 1020.33 1020.33 1020.33 1020.37 1020.49 1020.53 1020.57 1020.65 1020.65 1020.77 1020.89 1021.01 1021.09 1021.21 1021.33 1021.45 1021.53 1021.61 1021.61 1021.69 1021.69 1021.69 1021.73 1021.81 1021.89 1021.93 1022.05 1022.17 1022.25 1022.33 1022.49 1022.57 1022.69 1022.77 1022.85 1022.93 1022.97 1023.05 1023.17 1023.21
1016.85 1017.01 1017.17 1017.33 1017.49 1017.69 1017.85 1017.97 1018.13 1018.29 1018.45 1018.65 1018.77 1018.93 1019.05 1019.17 1019.29 1019.37 1019.49 1019.57 1019.61 1019.69 1019.77 1019.93 1020.05 1020.17 1020.25 1020.33 1020.41 1020.53 1020.61 1020.57 1020.61 1020.65 1020.65 1020.65 1020.69 1020.77 1020.85 1020.97 1021.09 1021.21 1021.33 1021.41 1021.49 1021.61 1021.65 1021.69 1021.73 1021.73 1021.73 1021.73 1021.81 1021.89 1021.97 1022.05 1022.17 1022.29 1022.37 1022.49 1022.65 1022.73 1022.81 1022.89 1022.93 1023.05 1023.17 1023.29 1023.33
1016.81 1017.01 1017.17 1017.33 1017.49 1017.65 1017.81 1017.93 1018.13 1018.29 1018.49 1018.65 1018.77 1018.93 1019.09 1019.21 1019.33 1019.45 1019.57 1019.65 1019.77 1019.89 1019.97 1020.09 1020.21 1020.33 1020.41 1020.49 1020.49 1020.65 1020.73 1020.77 1020.85 1020.89 1020.85 1020.81 1020.77 1020.85 1020.97 1021.05 1021.21 1021.29 1021.41 1021.49 1021.57 1021.61 1021.69 1021.73 1021.77 1021.77 1021.77 1021.81 1021.89 1021.93 1022.01 1022.09 1022.21 1022.33 1022.45 1022.57 1022.65 1022.77 1022.81 1022.93 1022.97 1023.05 1023.17 1023.29 1023.33
1016.81 1017.01 1017.21 1017.33 1017.49 1017.65 1017.81 1017.97 1018.13 1018.33 1018.49 1018.65 1018.85 1018.97 1019.13 1019.25 1019.37 1019.49 1019.65 1019.77 1019.93 1020.01 1020.13 1020.25 1020.33 1020.45 1020.49 1020.57 1020.61 1020.69 1020.77 1020.89 1020.93 1021.01 1021.05 1021.01 1020.93 1020.97 1021.05 1021.17 1021.29 1021.37 1021.49 1021.57 1021.61 1021.69 1021.73 1021.81 1021.81 1021.85 1021.89 1021.93 1021.93 1021.97 1022.05 1022.09 1022.21 1022.33 1022.41 1022.53 1022.65 1022.73 1022.81 1022.93 1023.01 1023.05 1023.13 1023.21 1023.29
Wind_Speed
5 4 4 3 3 3 3 3 3 2 2 3 3 3 3 3 3 3 2 2 2 1 1 1 1 1 1 2 1 1 2 2 2 3 3 4 4 5 5 6 6 7 7 7 7 6 6 6 3 2 2 2 2 2 2 2 1 1 2 2 2 2 2 2 2 2 2 2 1
5 5 5 4 4 3 3 3 3 3 3 3 3 3 3 3 3 2 2 2 1 1 1 1 1 1 2 2 2 2 2 2 2 2 3 3 4 4 5 5 5 6 6 7 6 5 4 4 3 2 2 2 2 2 2 2 2 1 1 2 2 2 2 2 3 3 4 5 4
6 5 5 5 4 4 4 3 4 4 4 3 2 2 2 2 1 1 1 2 2 1 1 1 1 1 2 2 2 2 2 2 2 2 2 2 3 3 4 3 4 4 4 5 4 4 3 3 2 2 2 2 2 2 2 2 2 2 3 3 2 2 2 2 3 3 3 4 4
6 5 5 5 5 5 4 3 4 4 4 3 3 2 2 2 2 2 2 2 2 1 1 1 1 2 2 2 2 2 2 2 2 2 2 2 3 3 3 3 3 3 4 4 3 3 3 3 3 2 2 2 3 3 2 2 3 3 3 3 3 3 3 2 3 3 3 3 3
5 5 4 4 5 5 4 4 4 4 4 3 3 2 2 2 2 2 2 2 2 2 2 2 2 2 3 2 2 2 2 2 2 2 2 2 3 3 3 3 3 3 4 4 4 4 4 4 3 2 3 3 3 3 3 3 3 3 3 3 3 3 3 3 3 3 3 3 3
5 5 4 4 4 4 4 4 4 4 4 3 3 3 3 2 2 2 2 2 3 3 3 2 2 2 2 2 2 2 2 2 2 2 2 3 3 3 3 4 4 4 4 4 4 4 4 4 3 3 3 3 3 3 3 4 4 4 3 3 3 2 2 3 2 3 3 4 4
5 5 5 5 5 5 4 4 4 4 3 3 3 3 3 3 3 3 3 3 3 3 3 2 2 1 1 1 1 1 2 2 2 2 3 3 3 3 3 4 4 4 4 4 4 4 4 4 3 3 3 3 2 3 3 4 4 4 4 3 3 2 3 3 2 3 4 6 6
6 6 5 5 5 5 5 4 4 3 3 3 3 4 4 4 4 4 3 3 3 3 2 2 2 2 2 2 2 2 2 3 3 3 3 3 3 3 4 4 4 4 4 4 4 4 4 3 3 3 3 2 2 3 3 4 5 5 5 4 3 2 2 2 2 3 5 7 7
5 5 5 5 5 5 5 4 4 4 4 4 4 4 4 4 4 4 4 3 3 3 2 2 2 2 2 2 2 2 3 3 3 3 3 3 3 3 3 4 4 4 4 4 4 4 4 3 3 3 3 2 2 3 3 5 6 6 5 5 4 3 3 3 4 4 5 7 7
5 5 5 5 5 5 5 5 5 5 5 5 6 6 5 5 4 4 4 3 3 2 2 2 2 2 2 3 3 3 3 3 4 3 3 3 3 3 4 4 4 4 3 3 4 4 4 3 3 3 3 3 4 4 4 5 6 6 5 4 4 5 5 4 5 5 5 6 7
6 5 5 5 5 5 5 5 5 5 5 6 6 5 5 4 4 4 3 3 3 3 2 2 2 3 3 3 3 3 3 3 3 3 3 4 4 4 4 4 4 4 3 3 4 3 3 3 4 4 5 4 5 5 5 5 6 6 6 5 6 6 6 5 5 5 5 6 7
6 6 5 5 5 5 5 5 5 5 5 5 5 5 5 4 4 3 3 3 4 3 3 2 3 3 3 3 3 3 3 3 3 3 3 4 4 5 5 5 4 4 4 4 3 3 4 4 5 5 5 5 4 4 4 5 6 6 6 7 7 7 6 6 5 5 4 5 6
6 6 6 5 5 5 5 5 5 5 5 5 5 5 4 4 3 3 3 4 4 3 3 3 3 3 3 3 2 3 3 3 3 3 3 4 4 4 5 5 5 5 4 4 4 4 5 5 5 5 5 5 4 4 5 5 6 6 7 7 7 6 6 6 6 5 6 6 6
6 6 6 6 6 5 5 5 5 5 5 5 5 5 4 4 3 3 3 4 4 3 3 3 3 3 2 2 2 2 2 3 3 3 3 3 4 4 4 5 5 5 5 5 5 5 6 6 6 6 6 6 6 5 5 5 6 6 6 7 7 6 6 6 6 6 6 6 6
6 6 6 6 5 5 5 5 4 4 5 5 5 5 4 4 3 3 3 4 4 3 3 3 3 2 2 2 2 2 2 2 3 3 3 3 4 4 4 4 5 5 5 5 5 6 6 6 6 6 6 6 6 6 6 6 6 6 6 6 6 6 6 6 6 6 6 6 6
6 6 6 5 5 5 5 5 4 4 4 5 5 4 4 4 3 3 3 3 3 3 3 3 2 2 2 2 2 2 2 2 2 3 3 3 4 4 4 4 4 5 5 5 6 6 6 6 6 6 6 6 6 6 6 6 6 6 6 6 6 6 6 6 6 6 6 6 6
6 6 5 5 5 5 5 5 4 4 4 5 5 4 4 4 3 3 3 2 2 2 2 3 2 2 2 2 2 2 2 2 3 3 3 4 4 4 4 4 4 4 4 5 5 6 6 6 6 6 6 6 6 6 6 6 6 6 6 6 6 6 6 6 6 6 6 6 6
6 5 5 5 5 5 5 5 4 4 4 4 4 4 4 4 3 3 2 2 2 2 2 2 2 2 2 2 2 2 2 3 3 4 4 4 4 4 4 5 4 4 4 5 5 6 6 6 6 6 6 6 6 6 6 6 6 6 7 7 6 6 6 6 6 6 6 6 6
6 5 5 5 5 5 5 5 5 4 4 4 4 4 3 3 3 3 2 2 1 1 2 2 2 2 2 2 2 3 3 3 4 4 5 5 5 5 5 5 4 4 4 5 5 5 6 6 6 6 6 6 6 6 6 6 6 6 7 7 6 6 6 6 6 6 6 6 5
6 6 5 5 5 5 5 5 4 4 4 3 3 3 3 3 3 2 2 2 1 1 1 1 1 2 2 2 3 3 3 3 4 4 4 4 4 4 4 4 4 4 4 5 5 5 5 5 6 6 7 7 7 7 7 7 7 7 7 6 6 7 7 7 6 6 6 6 5
6 6 5 5 5 5 5 5 4 4 3 3 3 3 3 2 2 2 1 1 1 1 1 1 1 1 2 2 3 3 3 3 3 3 4 4 4 4 4 4 4 4 4 4 5 5 5 5 6 6 6 7 7 7 7 7 7 7 7 6 7 7 7 7 7 7 6 6 5
6 6 6 5 5 5 5 5 4 4 3 3 3 3 2 2 2 1 1 1 1 1 1 1 1 1 2 2 3 3 3 3 3 3 3 3 4 4 4 4 5 5 4 4 4 5 5 5 6 6 6 6 6 7 7 7 7 7 7 8 7 7 7 7 7 7 6 6 6
7 6 6 6 5 5 5 5 4 4 3 3 3 2 2 2 1 1 1 1 1 1 1 1 1 2 2 3 3 3 3 3 4 4 4 4 4 4 4 4 4 4 4 4 4 4 4 5 5 6 6 6 6 7 7 7 7 8 8 8 8 8 8 7 7 7 7 7 6
7 7 6 5 6 5 5 4 4 3 3 3 3 2 2 2 1 1 2 2 2 2 2 1 2 2 3 3 3 3 4 4 4 4 4 4 4 4 4 4 3 3 3 3 3 3 4 4 4 5 5 6 6 6 7 7 7 8 8 9 8 8 8 8 7 7 7 7 7
7 7 6 6 6 5 5 4 4 3 3 3 3 2 2 2 2 2 2 3 3 3 3 2 2 2 3 3 3 3 4 4 4 4 4 4 3 3 3 3 3 3 2 3 3 4 4 4 4 5 5 5 6 6 6 7 7 7 8 8 8 8 8 8 7 7 7 7 7
7 6 6 6 6 5 4 4 3 3 3 3 3 2 2 2 2 3 3 4 4 4 3 3 3 3 3 3 3 4 4 4 4 4 4 4 4 3 3 3 3 2 2 3 4 5 5 6 6 6 5 5 5 6 6 6 7 7 7 8 7 7 7 7 7 7 7 6 7
7 6 6 5 5 5 4 3 3 3 3 3 3 2 2 2 3 3 4 4 4 4 4 3 3 3 3 3 3 3 4 4 4 4 4 4 4 4 3 3 3 3 3 4 6 6 7 7 7 7 6 5 5 5 6 6 6 6 6 6 6 7 7 7 7 7 6 6 7
6 6 5 5 5 4 3 3 3 3 3 3 3 3 3 3 3 4 4 4 4 4 3 3 3 3 2 3 3 3 4 4 4 4 4 4 4 3 3 3 3 3 4 6 7 7 8 8 8 8 7 6 4 4 5 6 6 5 5 5 6 6 7 7 6 6 6 6 6
6 6 5 5 4 4 3 3 3 3 4 3 3 3 3 3 4 4 4 4 4 4 3 2 2 2 2 3 3 4 4 4 4 4 4 4 4 4 3 3 4 5 6 8 8 8 8 9 9 9 8 7 4 4 4 5 5 5 5 5 5 6 6 6 6 6 6 6 6
5 5 5 4 4 3 3 4 4 4 4 4 3 3 3 3 4 4 4 4 4 4 3 3 3 3 3 4 4 4 4 4 4 4 4 5 4 4 4 4 5 5 7 9 9 9 9 9 9 9 9 8 6 4 4 4 4 4 5 4 5 6 6 6 6 6 6 6 6
5 5 4 4 4 4 4 4 5 5 5 4 4 3 3 4 4 4 4 4 3 4 4 4 4 4 4 4 4 4 4 4 4 4 5 5 5 5 5 5 5 6 7 9 10 10 10 10 9 9 9 8 6 4 3 4 4 4 4 5 5 6 6 5 6 6 6 6 6
5 5 5 5 4 4 5 5 5 5 5 4 4 4 4 4 4 4 4 4 4 4 4 4 5 5 5 5 4 4 4 4 4 4 4 5 5 6 6 6 6 7 8 10 10 10 10 10 10 10 9 9 6 4 3 3 4 4 5 5 5 5 5 4 4 5 6 6 5
6 6 6 5 5 5 5 5 5 5 4 4 4 4 4 4 4 4 3 3 4 4 4 5 5 5 5 5 5 4 4 4 4 4 4 5 5 6 6 6 5 7 9 10 10 10 11 11 11 11 10 10 7 5 4 4 4 4 5 5 5 5 5 4 4 4 4 4 4
7 6 6 6 5 5 5 5 4 4 4 4 3 3 4 4 4 3 3 3 3 4 4 4 5 5 5 5 5 4 4 4 4 4 4 5 5 6 6 5 4 6 9 11 11 11 11 11 12 12 11 10 6 5 5 6 5 5 5 6 6 6 5 5 5 5 4 4 4
7 7 6 6 6 6 5 5 5 5 5 4 4 4 4 4 4 4 4 3 3 3 4 4 4 4 4 4 4 4 4 4 4 4 4 5 5 6 6 5 5 7 10 11 11 11 12 12 12 12 11 8 6 5 6 7 6 6 7 7 6 6 5 5 5 5 4 4 4
8 7 7 6 6 6 6 6 6 6 5 5 5 4 4 4 4 4 4 4 4 4 4 4 4 4 4 4 4 4 4 4 5 5 4 5 5 6 6 6 7 8 11 11 11 12 12 12 12 11 10 7 5 5 5 6 6 6 7 7 6 6 6 5 5 4 4 4 4
8 8 7 7 7 7 7 7 7 6 6 5 5 5 5 4 4 4 4 4 4 4 4 4 4 4 4 4 3 3 3 5 5 5 5 4 5 6 6 6 7 8 10 11 12 12 12 12 11 10 8 6 5 5 5 5 5 6 6 7 6 6 6 5 4 4 4 4 3
8 8 8 7 7 7 7 7 7 7 6 6 5 5 5 4 4 4 3 3 3 3 4 4 4 4 5 5 4 4 3 3 4 4 4 4 5 6 7 7 7 8 9 11 11 12 11 11 10 8 7 5 5 5 5 4 5 5 5 5 5 5 5 4 4 4 4 4 4
8 8 8 8 8 8 8 8 7 7 7 6 5 5 5 4 4 4 3 3 3 3 3 4 5 5 5 6 5 4 4 4 4 3 3 3 5 6 7 7 7 7 8 10 11 11 10 9 8 7 6 5 5 4 4 4 5 5 5 5 5 5 4 4 3 4 4 5 4
8 8 8 8 8 8 8 8 8 7 6 6 5 5 5 5 4 4 4 3 3 3 4 5 5 5 5 5 5 5 5 5 4 4 3 2 4 6 7 7 7 7 8 9 10 10 9 9 7 6 5 4 4 4 3 4 4 5 5 4 4 4 4 4 3 4 4 5 4
7 7 7 7 7 7 7 7 7 6 6 5 5 5 5 5 5 5 5 4 4 4 4 5 5 5 5 5 5 5 5 5 4 4 4 3 3 5 7 7 7 7 7 8 9 9 9 8 7 6 5 4 3 3 3 4 4 5 5 5 4 4 4 3 3 3 4 4 4
Wind_Direction
163 161 160 160 156 156 158 158 159 164 173 181 183 182 183 192 201 199 191 181 185 179 161 129 100 79 68 60 36 1 338 335 331 324 317 311 311 316 319 319 312 304 298 293 292 292 292 290 305 346 26 19 31 50 61 53 45 216 214 208 203 189 174 173 170 166 162 156 121
164 160 156 152 154 156 156 156 159 167 176 184 186 184 183 189 196 193 182 170 161 150 136 124 114 90 66 50 38 26 14 3 347 341 339 338 336 335 333 327 320 315 311 308 305 303 306 312 339 19 52 54 63 67 63 50 56 80 105 104 82 74 76 85 79 80 84 91 92
158 155 153 154 159 160 160 157 159 163 164 160 158 161 165 173 167 158 145 133 131 132 135 144 143 118 91 67 58 49 41 30 13 12 17 20 17 10 1 354 350 347 344 336 333 335 345 0 26 49 67 78 84 79 66 51 54 71 83 77 68 64 66 71 72 77 85 95 104
151 151 152 157 161 159 155 152 151 149 145 135 136 135 129 114 103 100 103 104 101 99 98 105 124 107 94 84 82 77 70 63 50 53 58 55 48 37 29 24 23 20 19 17 20 29 40 52 56 60 66 79 82 81 75 64 68 72 73 66 64 66 70 71 65 64 70 80 89
140 140 141 145 145 142 136 134 135 132 128 125 129 128 122 109 105 108 108 103 88 76 62 42 46 60 69 71 83 90 93 90 80 78 76 70 59 51 45 42 43 40 37 37 43 51 59 66 66 64 63 66 70 75 80 80 83 82 78 65 61 65 71 75 70 68 70 76 79
123 119 116 113 113 110 109 111 116 117 119 123 130 129 127 120 122 123 120 110 100 90 77 56 51 57 67 78 94 105 109 107 104 95 85 79 69 62 57 55 55 52 50 48 53 58 64 70 72 68 65 66 72 76 81 85 90 90 86 73 64 65 73 81 83 86 90 93 93
108 104 102 100 99 98 99 103 106 108 111 118 126 128 126 122 123 120 115 108 107 103 98 89 91 98 107 134 128 125 118 109 97 86 79 75 73 71 69 65 62 59 56 55 57 61 65 71 77 76 73 70 71 74 79 87 92 92 89 81 70 68 75 87 95 100 103 103 100
95 94 94 94 94 96 98 102 104 106 109 114 117 115 113 114 114 110 105 97 92 90 89 92 103 120 135 149 140 131 119 107 95 86 81 79 78 77 76 75 71 69 66 64 65 67 69 70 76 80 80 76 75 78 83 91 93 93 91 87 79 71 70 85 95 103 106 107 104
94 91 89 89 90 93 95 97 100 103 103 99 91 87 85 87 94 95 91 81 75 75 79 91 109 122 131 131 122 114 106 97 88 81 75 75 75 78 81 81 78 76 75 74 74 75 76 75 75 77 80 81 82 85 91 97 98 99 97 95 92 87 81 82 88 97 105 109 107
101 98 96 93 93 93 93 91 89 87 86 84 80 76 71 66 70 74 76 77 80 84 91 103 111 115 113 105 97 93 91 90 86 81 76 76 75 76 78 80 78 78 81 83 80 80 81 83 86 88 90 92 95 97 99 101 104 105 104 102 100 95 89 82 85 92 101 108 108
106 105 103 101 102 101 98 93 87 83 82 83 83 81 77 70 68 72 80 95 102 105 107 107 110 108 102 92 90 91 94 98 100 100 99 97 92 85 80 77 75 75 78 86 89 89 89 91 94 97 99 102 102 101 101 103 105 106 106 106 103 99 94 89 88 90 94 100 103
110 109 109 109 111 111 108 103 96 92 91 93 90 87 83 79 82 90 103 114 115 113 107 96 96 95 94 90 92 95 98 102 105 105 102 97 95 93 89 85 80 74 70 71 78 83 86 86 89 93 96 100 97 96 97 103 104 105 105 106 105 103 101 99 97 96 95 96 98
116 116 117 117 119 118 116 111 107 105 104 103 97 93 93 94 102 111 118 119 116 109 100 88 82 82 84 88 95 96 98 101 101 98 94 90 90 88 87 84 80 75 69 63 65 72 78 81 81 83 84 85 86 88 92 96 100 103 104 104 102 102 103 103 102 100 99 98 97
121 122 123 124 125 122 119 114 112 111 111 109 106 107 109 114 116 118 118 114 109 104 99 94 86 82 85 93 96 97 98 101 101 98 93 88 85 83 81 78 74 71 69 68 69 73 79 84 84 83 82 81 83 84 86 87 92 97 100 101 101 102 103 102 101 100 100 101 102
124 125 126 128 127 123 117 113 112 113 114 114 115 118 120 120 118 114 112 109 107 105 102 99 94 90 88 86 85 85 87 90 93 93 92 88 83 80 77 75 72 70 70 72 73 75 77 82 86 88 88 87 86 86 85 85 89 92 96 99 102 103 104 104 103 104 106 109 110
126 127 129 131 128 123 117 113 112 115 118 119 120 121 121 119 116 112 110 113 116 117 113 107 99 91 82 74 70 69 71 75 76 76 76 76 74 73 73 74 73 73 75 78 78 78 78 79 83 87 89 91 90 89 88 89 90 92 95 98 101 102 104 105 106 108 111 113 115
127 129 130 130 126 121 117 115 115 118 121 122 123 123 123 122 121 118 117 122 127 128 125 119 112 101 88 79 67 58 56 59 64 64 63 63 66 68 70 72 74 78 82 86 86 86 85 85 88 89 90 92 92 92 91 92 92 93 94 96 97 99 101 103 104 107 109 111 113
129 129 128 126 122 120 118 117 118 121 125 125 127 129 129 130 131 130 129 130 128 128 129 128 123 114 101 87 69 54 46 45 52 56 58 59 61 65 68 71 74 78 84 91 94 97 99 101 102 101 99 97 96 95 94 94 94 94 94 94 95 96 97 99 101 103 106 108 110
133 132 130 126 123 120 120 120 122 126 129 131 132 133 133 135 135 135 133 133 121 121 127 132 125 115 101 83 67 58 52 50 54 57 59 59 61 64 68 71 74 77 83 90 96 101 106 111 110 108 104 102 100 98 97 96 95 95 95 95 94 94 95 96 98 101 104 107 110
137 136 134 129 125 123 122 124 127 130 133 132 132 131 132 134 133 133 133 132 116 112 120 134 128 118 107 91 79 70 65 61 65 67 69 69 70 72 76 79 81 83 86 90 91 94 97 103 105 105 104 105 104 103 102 100 100 100 99 97 96 96 98 99 101 104 106 109 112
140 138 135 130 128 126 125 126 128 130 131 129 127 127 127 126 123 122 119 113 104 108 122 134 129 125 116 104 92 84 77 71 76 80 83 86 87 87 86 84 83 83 85 89 93 96 99 102 106 109 111 111 111 111 110 109 108 106 105 103 102 103 105 107 108 109 110 113 115
140 137 134 132 130 129 127 128 129 129 129 126 125 124 125 121 115 110 102 92 102 114 122 118 118 115 109 102 96 91 86 81 81 84 88 92 92 90 85 82 79 78 80 86 95 101 105 109 112 114 115 115 116 117 117 116 114 112 110 109 110 110 111 112 113 114 116 118 118
141 138 135 133 132 131 131 131 131 132 132 132 132 131 130 127 124 129 142 166 168 157 140 125 113 103 95 91 93 95 94 88 80 76 76 78 82 84 86 88 89 91 94 97 101 107 113 116 117 118 119 119 121 121 121 119 118 117 116 116 116 116 115 116 118 120 122 120 116
142 141 139 137 137 137 137 138 140 143 147 150 145 143 141 144 152 173 189 195 184 172 162 150 130 113 103 97 100 103 103 101 93 88 85 85 89 92 96 101 109 114 116 113 118 123 127 126 124 123 123 123 125 124 122 121 121 122 122 122 121 120 119 120 121 121 120 116 109
145 144 142 140 141 143 144 148 154 159 164 164 157 154 156 166 183 195 201 200 186 175 163 146 134 125 118 114 113 113 115 116 117 116 115 113 115 117 120 126 129 128 124 122 135 139 138 133 130 129 128 127 127 125 124 124 125 126 126 125 124 123 120 116 110 104 100 98 96
147 147 146 145 145 147 151 159 167 173 176 170 165 164 171 184 197 206 207 200 184 168 154 139 139 135 129 123 121 123 126 129 133 137 138 138 141 142 143 140 130 123 124 139 148 149 145 138 135 133 131 130 129 129 129 129 131 130 128 127 125 122 118 112 102 93 87 87 93
150 151 151 150 151 154 159 169 179 185 185 176 172 172 180 192 204 209 207 196 177 161 148 142 141 134 125 121 125 131 135 137 142 145 147 147 152 153 150 140 132 131 141 155 156 154 149 142 137 134 132 129 130 131 131 130 127 124 121 122 120 117 115 112 108 103 99 100 104
155 155 155 155 158 162 166 176 190 196 192 181 175 174 182 193 205 210 206 191 173 160 149 141 132 123 119 126 134 139 141 143 145 147 149 152 158 156 149 141 135 141 152 160 159 155 149 141 137 132 129 124 122 122 122 119 116 113 112 115 116 117 118 118 118 117 117 117 116
157 156 155 159 164 166 172 186 202 204 199 187 180 181 186 194 208 212 207 191 175 160 147 133 125 126 135 144 145 147 148 149 149 151 155 161 162 156 145 138 136 145 154 160 156 151 146 140 135 131 127 121 114 110 110 110 113 116 118 120 124 127 128 130 130 131 130 128 124
159 156 156 168 173 178 185 196 204 203 198 188 185 185 189 195 210 214 209 193 176 161 147 140 141 148 152 151 151 152 155 157 158 160 164 167 162 153 144 140 141 149 154 156 152 147 142 137 133 128 123 117 110 106 108 115 121 126 130 131 134 135 136 136 136 136 135 133 129
167 166 167 178 186 192 196 197 200 198 194 187 184 186 192 202 210 211 206 193 175 160 150 149 155 158 158 155 157 158 161 165 168 169 168 164 154 145 139 137 140 146 150 150 146 142 137 132 126 121 116 111 107 107 113 124 126 127 128 128 130 130 130 130 133 134 135 134 131
176 175 175 182 189 196 199 199 198 194 189 187 184 183 189 205 209 207 200 189 172 161 157 160 164 164 162 160 161 162 165 171 171 168 162 154 144 137 134 134 138 142 145 145 141 137 131 125 121 115 109 103 96 90 91 103 107 107 107 106 111 116 120 123 127 128 128 129 128
178 177 177 181 186 192 198 199 194 187 181 179 178 180 187 202 204 200 192 181 170 164 164 167 169 168 165 163 162 162 164 168 163 155 148 141 136 133 132 131 133 138 141 140 136 132 128 124 120 116 110 103 95 89 86 87 88 92 93 90 87 86 86 88 93 100 106 111 114
178 178 178 180 182 186 189 190 180 172 166 167 172 180 188 198 195 190 183 174 166 165 168 170 170 167 163 160 158 158 157 154 146 141 138 136 133 131 130 128 130 136 138 135 132 129 127 126 123 120 115 110 106 104 103 100 97 96 93 89 82 76 71 68 70 74 81 90 98
178 179 179 179 179 181 182 179 170 165 165 170 177 184 189 192 188 183 176 169 164 164 167 167 164 160 157 154 152 150 146 140 135 134 135 136 133 131 128 127 129 133 134 131 129 129 129 128 126 123 120 117 116 113 111 108 106 104 103 100 96 92 88 83 79 76 77 83 95
178 178 178 178 179 181 180 177 172 170 171 177 182 186 188 188 184 178 171 167 166 165 164 163 159 156 153 149 145 142 139 139 136 134 134 135 133 130 128 128 129 132 131 129 129 130 130 130 127 125 124 122 120 117 115 112 112 113 113 111 108 105 101 96 92 86 82 80 88
177 177 176 177 180 182 181 178 174 173 174 179 181 183 183 181 176 170 166 166 169 167 165 160 152 141 128 116 112 118 130 140 137 135 134 135 131 129 128 127 128 129 130 130 131 132 132 132 130 129 127 124 122 120 119 118 118 118 117 115 113 111 109 106 104 101 95 85 72
176 176 176 177 180 181 181 179 175 174 175 176 178 177 175 171 164 159 160 163 168 166 159 147 128 112 100 93 87 84 92 118 122 126 129 132 132 131 129 127 126 127 130 133 134 135 136 135 134 132 130 126 124 123 122 121 121 120 119 117 117 118 119 120 120 114 104 90 64
175 175 177 179 181 181 181 178 174 172 171 171 172 172 168 161 153 150 150 152 153 145 133 120 110 105 102 101 95 84 71 71 77 84 97 118 132 134 132 128 128 130 133 137 138 139 139 138 136 134 130 125 124 124 123 124 123 123 122 121 122 125 127 128 125 116 108 100 79
173 176 179 181 181 180 178 175 171 168 166 165 166 166 162 156 149 144 140 134 125 116 111 110 111 112 113 113 108 100 89 76 65 55 51 63 120 131 133 131 132 134 137 141 142 143 142 141 138 136 132 125 125 125 126 127 128 128 129 129 131 132 132 131 127 122 120 120 114
170 174 177 179 176 174 170 166 164 161 159 158 161 162 160 154 149 146 141 132 124 117 116 117 121 124 124 123 118 114 109 102 86 67 51 44 96 125 133 134 136 139 142 145 147 147 146 145 143 141 137 130 129 130 132 134 135 136 137 138 138 137 134 132 132 131 131 133 128